ASX360 EKCH-LSZH

Flight info

Callsign ASX360
Flight time 1h 27m
Altitude 38000
Route NEXEN T503 GIMRU DCT MICOS DCT TOLGI DCT SWALM DCT OMOGI T721 RILAX
Aircraft A20N/M-SDE2E3FGHIJ1RWXY/LB1

Departure

Time 2026-05-06 08:09
Airport Copenhagen Kastrup Airport (EKCH)

Arrival

Time 2026-05-06 09:37
Airport Zürich Airport (LSZH)
Time Latitude Longitude Altitude Speed Heading
2026-05-06 08:00 55.62664 12.64002 28 ft 4 kts 116°
2026-05-06 08:00 55.62681 12.63980 26 ft 4 kts 138°
2026-05-06 08:00 55.62695 12.63951 26 ft 4 kts 122°
2026-05-06 08:00 55.62705 12.63919 27 ft 4 kts 100°
2026-05-06 08:01 55.62705 12.63896 27 ft 4 kts 82°
2026-05-06 08:01 55.62693 12.63861 25 ft 3 kts 46°
2026-05-06 08:01 55.62682 12.63845 25 ft 4 kts 27°
2026-05-06 08:01 55.62669 12.63824 28 ft 4 kts 79°
2026-05-06 08:02 55.62665 12.63787 28 ft 4 kts 102°
2026-05-06 08:02 55.62669 12.63758 27 ft 4 kts 95°
2026-05-06 08:02 55.62670 12.63727 26 ft 0 kts 95°
2026-05-06 08:04 55.62667 12.63791 26 ft 11 kts 95°
2026-05-06 08:04 55.62623 12.63941 26 ft 17 kts 122°
2026-05-06 08:04 55.62551 12.64134 23 ft 20 kts 123°
2026-05-06 08:05 55.62466 12.64350 23 ft 23 kts 128°
2026-05-06 08:05 55.62370 12.64586 26 ft 24 kts 122°
2026-05-06 08:05 55.62274 12.64847 28 ft 26 kts 123°
2026-05-06 08:05 55.62165 12.65108 25 ft 24 kts 157°
2026-05-06 08:06 55.62079 12.65027 26 ft 14 kts 213°
2026-05-06 08:06 55.61985 12.64918 26 ft 18 kts 213°
2026-05-06 08:06 55.61870 12.64788 25 ft 21 kts 212°
2026-05-06 08:06 55.61740 12.64637 24 ft 24 kts 213°
2026-05-06 08:07 55.61596 12.64471 24 ft 26 kts 212°
2026-05-06 08:07 55.61442 12.64294 24 ft 28 kts 214°
2026-05-06 08:07 55.61273 12.64116 25 ft 28 kts 189°
2026-05-06 08:07 55.61187 12.64247 23 ft 14 kts 78°
2026-05-06 08:08 55.61220 12.64424 25 ft 16 kts 70°
2026-05-06 08:08 55.61258 12.64620 26 ft 18 kts 71°
2026-05-06 08:08 55.61252 12.64759 28 ft 6 kts 51°
2026-05-06 08:08 55.61262 12.64773 25 ft 0 kts 41°
2026-05-06 08:09 55.61406 12.64998 26 ft 64 kts 41°
2026-05-06 08:09 55.61895 12.65752 25 ft 122 kts 41°
2026-05-06 08:09 55.62634 12.66913 205 ft 147 kts 41°
2026-05-06 08:09 55.63375 12.68144 859 ft 148 kts 41°
2026-05-06 08:10 55.64155 12.69370 1498 ft 152 kts 43°
2026-05-06 08:10 55.64984 12.70618 2029 ft 162 kts 43°
2026-05-06 08:10 55.65886 12.71965 2471 ft 179 kts 41°
2026-05-06 08:10 55.66900 12.73446 2924 ft 201 kts 40°
2026-05-06 08:11 55.68042 12.75105 3485 ft 223 kts 41°
2026-05-06 08:11 55.69283 12.76965 4100 ft 245 kts 44°
2026-05-06 08:11 55.70248 12.79495 4946 ft 252 kts 70°
2026-05-06 08:11 55.70476 12.82606 5913 ft 259 kts 96°
2026-05-06 08:12 55.69872 12.85639 6837 ft 269 kts 122°
2026-05-06 08:12 55.68503 12.87948 7695 ft 278 kts 150°
2026-05-06 08:12 55.66727 12.89260 8652 ft 283 kts 161°
2026-05-06 08:12 55.64829 12.90411 9658 ft 287 kts 162°
2026-05-06 08:13 55.62906 12.91525 10409 ft 298 kts 168°
2026-05-06 08:13 55.60772 12.91703 10775 ft 317 kts 192°
2026-05-06 08:13 55.58678 12.90271 11205 ft 330 kts 215°
2026-05-06 08:13 55.56989 12.87507 12029 ft 333 kts 228°
2026-05-06 08:14 55.55425 12.84479 12943 ft 336 kts 228°
2026-05-06 08:14 55.53826 12.81411 13805 ft 340 kts 228°
2026-05-06 08:14 55.52196 12.78358 14577 ft 344 kts 227°
2026-05-06 08:14 55.50603 12.75183 15345 ft 347 kts 231°
2026-05-06 08:15 55.49076 12.71948 16103 ft 350 kts 231°
2026-05-06 08:15 55.47506 12.68640 16869 ft 353 kts 231°
2026-05-06 08:15 55.45896 12.65262 17634 ft 356 kts 231°
2026-05-06 08:15 55.44306 12.61934 18349 ft 360 kts 231°
2026-05-06 08:16 55.42666 12.58507 19015 ft 363 kts 231°
2026-05-06 08:16 55.41033 12.55100 19678 ft 365 kts 231°
2026-05-06 08:16 55.39404 12.51704 20318 ft 368 kts 231°
2026-05-06 08:16 55.37744 12.48248 20973 ft 371 kts 231°
2026-05-06 08:17 55.36072 12.44772 21593 ft 374 kts 230°
2026-05-06 08:17 55.34390 12.41280 22241 ft 377 kts 230°
2026-05-06 08:17 55.32688 12.37751 22884 ft 379 kts 230°
2026-05-06 08:17 55.30978 12.34212 23515 ft 382 kts 230°
2026-05-06 08:18 55.29225 12.30586 24034 ft 385 kts 230°
2026-05-06 08:18 55.27487 12.26997 24556 ft 388 kts 230°
2026-05-06 08:18 55.25735 12.23385 25057 ft 390 kts 229°
2026-05-06 08:18 55.23965 12.19744 25568 ft 393 kts 229°
2026-05-06 08:19 55.22181 12.16080 26058 ft 396 kts 229°
2026-05-06 08:19 55.20286 12.12578 26524 ft 398 kts 223°
2026-05-06 08:19 55.18162 12.09443 26986 ft 400 kts 216°
2026-05-06 08:19 55.15876 12.06545 27446 ft 402 kts 215°
2026-05-06 08:20 55.13597 12.03654 27871 ft 405 kts 215°
2026-05-06 08:20 55.11325 12.00760 28297 ft 407 kts 215°
2026-05-06 08:20 55.09020 11.97823 28687 ft 410 kts 215°
2026-05-06 08:20 55.06712 11.94881 29074 ft 413 kts 215°
2026-05-06 08:21 55.04346 11.91871 29468 ft 415 kts 215°
2026-05-06 08:21 55.01997 11.88887 29842 ft 418 kts 214°
2026-05-06 08:21 54.99643 11.85901 30195 ft 420 kts 214°
2026-05-06 08:21 54.97238 11.82856 30542 ft 422 kts 214°
2026-05-06 08:22 54.94849 11.79834 30893 ft 424 kts 214°
2026-05-06 08:22 54.92484 11.76848 31267 ft 424 kts 214°
2026-05-06 08:22 54.90071 11.73805 31726 ft 423 kts 214°
2026-05-06 08:22 54.87694 11.70812 32199 ft 421 kts 213°
2026-05-06 08:23 54.85342 11.67855 32671 ft 419 kts 213°
2026-05-06 08:23 54.82984 11.64895 33125 ft 417 kts 213°
2026-05-06 08:23 54.80605 11.61913 33571 ft 416 kts 213°
2026-05-06 08:23 54.78299 11.59026 33982 ft 414 kts 213°
2026-05-06 08:24 54.75959 11.56104 34292 ft 414 kts 213°
2026-05-06 08:24 54.73620 11.53188 34555 ft 415 kts 213°
2026-05-06 08:24 54.71249 11.50237 34816 ft 415 kts 213°
2026-05-06 08:24 54.68896 11.47312 35078 ft 416 kts 213°
2026-05-06 08:25 54.66549 11.44399 35335 ft 416 kts 213°
2026-05-06 08:25 54.64184 11.41469 35593 ft 417 kts 214°
2026-05-06 08:25 54.61834 11.38561 35832 ft 417 kts 214°
2026-05-06 08:25 54.59434 11.35597 36076 ft 417 kts 214°
2026-05-06 08:26 54.57076 11.32688 36298 ft 418 kts 214°
2026-05-06 08:26 54.54702 11.29766 36526 ft 418 kts 214°
2026-05-06 08:26 54.52352 11.26899 36743 ft 419 kts 214°
2026-05-06 08:26 54.49936 11.23966 36959 ft 419 kts 214°
2026-05-06 08:27 54.47553 11.21075 37187 ft 419 kts 214°
2026-05-06 08:27 54.45164 11.18180 37403 ft 419 kts 214°
2026-05-06 08:27 54.42783 11.15296 37615 ft 420 kts 214°
2026-05-06 08:27 54.40394 11.12406 37806 ft 420 kts 215°
2026-05-06 08:28 54.36403 11.07586 37894 ft 420 kts 215°
2026-05-06 08:28 54.31519 11.02011 37890 ft 419 kts 210°
2026-05-06 08:29 54.26239 10.97734 37884 ft 420 kts 201°
2026-05-06 08:29 54.20725 10.94319 37886 ft 421 kts 200°
2026-05-06 08:30 54.15220 10.90881 37878 ft 421 kts 201°
2026-05-06 08:30 54.09711 10.87429 37879 ft 422 kts 200°
2026-05-06 08:31 54.04149 10.83955 37870 ft 422 kts 200°
2026-05-06 08:31 53.98622 10.80512 37863 ft 422 kts 200°
2026-05-06 08:32 53.93105 10.77084 37861 ft 422 kts 200°
2026-05-06 08:32 53.87573 10.73658 37851 ft 423 kts 200°
2026-05-06 08:33 53.81992 10.70211 37852 ft 423 kts 200°
2026-05-06 08:33 53.76459 10.66803 37854 ft 423 kts 200°
2026-05-06 08:34 53.68076 10.61656 37856 ft 423 kts 200°
2026-05-06 08:35 53.62527 10.58262 37854 ft 424 kts 200°
2026-05-06 08:35 53.56954 10.54864 37849 ft 424 kts 200°
2026-05-06 08:36 53.51407 10.51490 37842 ft 424 kts 200°
2026-05-06 08:36 53.49892 10.50571 37842 ft 424 kts 200°
2026-05-06 08:37 53.44395 10.47240 37841 ft 424 kts 200°
2026-05-06 08:37 53.38847 10.43886 37832 ft 424 kts 200°
2026-05-06 08:38 53.33282 10.40532 37836 ft 425 kts 200°
2026-05-06 08:38 53.27675 10.37163 37834 ft 425 kts 200°
2026-05-06 08:39 53.22100 10.33822 37830 ft 425 kts 200°
2026-05-06 08:39 53.16491 10.30469 37831 ft 425 kts 200°
2026-05-06 08:40 53.10876 10.27122 37822 ft 425 kts 200°
2026-05-06 08:40 53.05297 10.23806 37828 ft 425 kts 200°
2026-05-06 08:41 52.99645 10.20457 37830 ft 425 kts 200°
2026-05-06 08:41 52.94973 10.17695 37823 ft 425 kts 200°
2026-05-06 08:42 52.89402 10.14410 37824 ft 425 kts 200°
2026-05-06 08:42 52.83815 10.11125 37818 ft 425 kts 200°
2026-05-06 08:43 52.78168 10.07813 37816 ft 425 kts 200°
2026-05-06 08:43 52.72542 10.04523 37817 ft 426 kts 200°
2026-05-06 08:44 52.66953 10.01263 37812 ft 426 kts 200°
2026-05-06 08:44 52.61315 9.97984 37836 ft 428 kts 200°
2026-05-06 08:45 52.55701 9.94727 37833 ft 429 kts 200°
2026-05-06 08:45 52.50059 9.91464 37831 ft 429 kts 200°
2026-05-06 08:46 52.44394 9.88196 37810 ft 429 kts 200°
2026-05-06 08:46 52.38748 9.84948 37807 ft 430 kts 200°
2026-05-06 08:47 52.33100 9.81708 37805 ft 430 kts 200°
2026-05-06 08:47 52.27419 9.78458 37793 ft 428 kts 200°
2026-05-06 08:48 52.21792 9.75245 37801 ft 428 kts 200°
2026-05-06 08:48 52.16108 9.72011 37797 ft 429 kts 200°
2026-05-06 08:49 52.10482 9.68817 37776 ft 428 kts 200°
2026-05-06 08:49 52.04821 9.65613 37786 ft 428 kts 200°
2026-05-06 08:50 51.99147 9.62409 37780 ft 428 kts 200°
2026-05-06 08:50 51.93519 9.59241 37776 ft 428 kts 200°
2026-05-06 08:51 51.87847 9.56054 37769 ft 428 kts 200°
2026-05-06 08:51 51.82124 9.53115 37782 ft 428 kts 195°
2026-05-06 08:52 51.76266 9.51263 37775 ft 429 kts 191°
2026-05-06 08:52 51.70341 9.49513 37766 ft 429 kts 192°
2026-05-06 08:53 51.64423 9.47743 37761 ft 429 kts 192°
2026-05-06 08:53 51.59493 9.46268 37756 ft 429 kts 192°
2026-05-06 08:54 51.53581 9.44504 37749 ft 428 kts 192°
2026-05-06 08:54 51.47721 9.42761 37751 ft 429 kts 192°
2026-05-06 08:55 51.41816 9.41009 37749 ft 428 kts 192°
2026-05-06 08:55 51.35964 9.39278 37748 ft 428 kts 192°
2026-05-06 08:56 51.30081 9.37541 37748 ft 427 kts 192°
2026-05-06 08:56 51.24198 9.35810 37752 ft 426 kts 192°
2026-05-06 08:57 51.18371 9.34099 37748 ft 425 kts 192°
2026-05-06 08:57 51.12507 9.32381 37748 ft 425 kts 192°
2026-05-06 08:58 51.06708 9.30687 37745 ft 424 kts 192°
2026-05-06 08:58 51.00811 9.28969 37748 ft 424 kts 192°
2026-05-06 08:59 50.94971 9.27273 37748 ft 423 kts 192°
2026-05-06 08:59 50.89186 9.25596 37747 ft 423 kts 192°
2026-05-06 09:00 50.83359 9.23911 37750 ft 423 kts 192°
2026-05-06 09:00 50.77529 9.22230 37753 ft 423 kts 192°
2026-05-06 09:01 50.71702 9.20564 37752 ft 423 kts 191°
2026-05-06 09:01 50.65822 9.19320 37753 ft 423 kts 189°
2026-05-06 09:02 50.59940 9.18107 37753 ft 423 kts 189°
2026-05-06 09:02 50.54080 9.16894 37749 ft 424 kts 189°
2026-05-06 09:03 50.48189 9.15677 37758 ft 424 kts 189°
2026-05-06 09:03 50.42322 9.14467 37762 ft 425 kts 189°
2026-05-06 09:04 50.36454 9.13260 37765 ft 426 kts 189°
2026-05-06 09:04 50.30508 9.12040 37771 ft 426 kts 189°
2026-05-06 09:05 50.24598 9.10832 37776 ft 427 kts 189°
2026-05-06 09:05 50.18732 9.09634 37778 ft 427 kts 189°
2026-05-06 09:06 50.13767 9.08623 37781 ft 427 kts 189°
2026-05-06 09:06 50.07802 9.07411 37779 ft 427 kts 189°
2026-05-06 09:07 50.01881 9.06211 37757 ft 427 kts 189°
2026-05-06 09:07 49.98862 9.05601 37509 ft 425 kts 189°
2026-05-06 09:07 49.95965 9.05016 37241 ft 422 kts 189°
2026-05-06 09:07 49.93050 9.04428 36975 ft 420 kts 189°
2026-05-06 09:08 49.90183 9.03850 36717 ft 420 kts 189°
2026-05-06 09:08 49.87121 9.03234 36441 ft 419 kts 189°
2026-05-06 09:08 49.84284 9.02663 36192 ft 418 kts 189°
2026-05-06 09:08 49.81509 9.02106 35952 ft 416 kts 189°
2026-05-06 09:09 49.78618 9.01526 35706 ft 415 kts 189°
2026-05-06 09:09 49.75749 9.00951 35446 ft 414 kts 189°
2026-05-06 09:09 49.72903 9.00382 35200 ft 412 kts 189°
2026-05-06 09:09 49.69931 8.99788 34952 ft 411 kts 189°
2026-05-06 09:10 49.67195 8.99241 34661 ft 410 kts 189°
2026-05-06 09:10 49.64317 8.98657 34194 ft 409 kts 190°
2026-05-06 09:10 49.61513 8.97932 33717 ft 406 kts 192°
2026-05-06 09:10 49.58752 8.97132 33168 ft 403 kts 192°
2026-05-06 09:11 49.56010 8.96333 32629 ft 403 kts 192°
2026-05-06 09:11 49.53196 8.95530 32093 ft 405 kts 192°
2026-05-06 09:11 49.50422 8.94754 31572 ft 406 kts 192°
2026-05-06 09:11 49.47582 8.93970 31054 ft 405 kts 192°
2026-05-06 09:12 49.44793 8.93206 30550 ft 405 kts 192°
2026-05-06 09:12 49.41994 8.92440 30051 ft 404 kts 192°
2026-05-06 09:12 49.39251 8.91692 29512 ft 400 kts 192°
2026-05-06 09:12 49.36529 8.90950 28945 ft 398 kts 192°
2026-05-06 09:13 49.33837 8.90217 28383 ft 396 kts 192°
2026-05-06 09:13 49.31163 8.89488 27842 ft 394 kts 192°
2026-05-06 09:13 49.28437 8.88747 27294 ft 394 kts 192°
2026-05-06 09:13 49.25729 8.88012 26767 ft 392 kts 192°
2026-05-06 09:14 49.23058 8.87287 26335 ft 390 kts 192°
2026-05-06 09:14 49.20351 8.86554 25946 ft 389 kts 192°
2026-05-06 09:14 49.17713 8.85837 25570 ft 389 kts 192°
2026-05-06 09:14 49.15042 8.85107 25193 ft 388 kts 192°
2026-05-06 09:15 49.12363 8.84374 24824 ft 387 kts 192°
2026-05-06 09:15 49.09715 8.83651 24460 ft 385 kts 192°
2026-05-06 09:15 49.07044 8.82923 24098 ft 385 kts 192°
2026-05-06 09:15 49.04377 8.82196 23735 ft 383 kts 192°
2026-05-06 09:16 49.01760 8.81485 23384 ft 382 kts 192°
2026-05-06 09:16 48.99139 8.80774 22974 ft 381 kts 191°
2026-05-06 09:16 48.96495 8.80057 22557 ft 378 kts 191°
2026-05-06 09:16 48.93912 8.79356 22149 ft 376 kts 191°
2026-05-06 09:17 48.91347 8.78661 21751 ft 374 kts 191°
2026-05-06 09:17 48.88791 8.77970 21351 ft 372 kts 191°
2026-05-06 09:17 48.86242 8.77282 20963 ft 371 kts 191°
2026-05-06 09:17 48.84527 8.76820 20703 ft 370 kts 191°
2026-05-06 09:18 48.82002 8.76142 20305 ft 369 kts 191°
2026-05-06 09:18 48.79475 8.75464 19946 ft 367 kts 191°
2026-05-06 09:18 48.76954 8.74789 19576 ft 367 kts 190°
2026-05-06 09:18 48.74412 8.74109 19203 ft 366 kts 190°
2026-05-06 09:19 48.71939 8.73447 18843 ft 365 kts 190°
2026-05-06 09:19 48.69441 8.72781 18482 ft 364 kts 190°
2026-05-06 09:19 48.66952 8.72116 18131 ft 362 kts 190°
2026-05-06 09:19 48.64473 8.71455 17725 ft 361 kts 190°
2026-05-06 09:20 48.62007 8.70798 17326 ft 357 kts 190°
2026-05-06 09:20 48.59573 8.70150 16934 ft 354 kts 190°
2026-05-06 09:20 48.57152 8.69506 16540 ft 351 kts 190°
2026-05-06 09:20 48.54753 8.68869 16151 ft 349 kts 190°
2026-05-06 09:21 48.52349 8.68231 15760 ft 343 kts 190°
2026-05-06 09:21 48.50022 8.67614 15384 ft 336 kts 190°
2026-05-06 09:21 48.47734 8.67008 15003 ft 329 kts 189°
2026-05-06 09:21 48.45527 8.66424 14644 ft 323 kts 189°
2026-05-06 09:22 48.43332 8.65844 14281 ft 318 kts 189°
2026-05-06 09:22 48.41187 8.65277 13912 ft 311 kts 189°
2026-05-06 09:22 48.39061 8.64716 13542 ft 298 kts 189°
2026-05-06 09:22 48.37043 8.64177 13154 ft 292 kts 190°
2026-05-06 09:23 48.35032 8.63582 12749 ft 289 kts 191°
2026-05-06 09:23 48.33071 8.62975 12356 ft 286 kts 191°
2026-05-06 09:23 48.31147 8.62379 11971 ft 284 kts 191°
2026-05-06 09:23 48.29245 8.61795 11597 ft 282 kts 191°
2026-05-06 09:24 48.27326 8.61212 11223 ft 279 kts 191°
2026-05-06 09:24 48.25400 8.60631 10840 ft 280 kts 191°
2026-05-06 09:24 48.23491 8.60056 10469 ft 280 kts 191°
2026-05-06 09:24 48.21588 8.59484 10109 ft 278 kts 191°
2026-05-06 09:25 48.19687 8.58912 9733 ft 278 kts 191°
2026-05-06 09:25 48.17789 8.58343 9347 ft 278 kts 191°
2026-05-06 09:25 48.15893 8.57775 8955 ft 277 kts 191°
2026-05-06 09:25 48.14009 8.57213 8556 ft 275 kts 191°
2026-05-06 09:26 48.12136 8.56655 8180 ft 275 kts 191°
2026-05-06 09:26 48.10249 8.56093 7795 ft 275 kts 191°
2026-05-06 09:26 48.08389 8.55541 7421 ft 272 kts 191°
2026-05-06 09:26 48.06529 8.54989 7046 ft 272 kts 191°
2026-05-06 09:27 48.04669 8.54437 6672 ft 272 kts 191°
2026-05-06 09:27 48.02813 8.53885 6318 ft 270 kts 191°
2026-05-06 09:27 48.00973 8.53340 5931 ft 269 kts 191°
2026-05-06 09:27 47.99133 8.52794 5618 ft 268 kts 191°
2026-05-06 09:28 47.97307 8.52253 5486 ft 269 kts 191°
2026-05-06 09:28 47.95447 8.51700 5363 ft 268 kts 191°
2026-05-06 09:28 47.93618 8.51160 5257 ft 268 kts 192°
2026-05-06 09:28 47.91796 8.50595 5178 ft 267 kts 192°
2026-05-06 09:29 47.89973 8.50014 5116 ft 267 kts 192°
2026-05-06 09:29 47.88310 8.49482 5069 ft 268 kts 192°
2026-05-06 09:29 47.86466 8.48894 5023 ft 267 kts 192°
2026-05-06 09:29 47.84640 8.48315 4992 ft 268 kts 192°
2026-05-06 09:30 47.82801 8.47738 4991 ft 266 kts 192°
2026-05-06 09:30 47.81010 8.47176 4994 ft 267 kts 193°
2026-05-06 09:30 47.79183 8.46601 4993 ft 268 kts 193°
2026-05-06 09:30 47.77360 8.46029 4995 ft 267 kts 193°
2026-05-06 09:31 47.75543 8.45458 4993 ft 267 kts 193°
2026-05-06 09:31 47.73697 8.44879 4998 ft 267 kts 193°
2026-05-06 09:31 47.71918 8.44320 4999 ft 267 kts 193°
2026-05-06 09:31 47.70122 8.43758 5000 ft 263 kts 193°
2026-05-06 09:32 47.68341 8.43201 4999 ft 267 kts 193°
2026-05-06 09:32 47.66501 8.42627 5002 ft 267 kts 193°
2026-05-06 09:32 47.64678 8.42057 5002 ft 267 kts 193°
2026-05-06 09:32 47.62847 8.41626 4925 ft 265 kts 187°
2026-05-06 09:33 47.61008 8.41437 4668 ft 252 kts 184°
2026-05-06 09:33 47.59336 8.41434 4417 ft 228 kts 176°
2026-05-06 09:33 47.57869 8.41878 4177 ft 205 kts 162°
2026-05-06 09:33 47.56643 8.42712 4057 ft 181 kts 151°
2026-05-06 09:34 47.55668 8.43661 3996 ft 153 kts 146°
2026-05-06 09:34 47.54881 8.44564 3847 ft 139 kts 142°
2026-05-06 09:34 47.54144 8.45505 3508 ft 140 kts 140°
2026-05-06 09:34 47.53438 8.46453 3176 ft 138 kts 139°
2026-05-06 09:35 47.52753 8.47397 2873 ft 140 kts 138°
2026-05-06 09:35 47.52039 8.48377 2579 ft 141 kts 139°
2026-05-06 09:35 47.51323 8.49344 2313 ft 140 kts 138°
2026-05-06 09:35 47.50625 8.50308 2085 ft 134 kts 137°
2026-05-06 09:36 47.49933 8.51264 1900 ft 138 kts 137°
2026-05-06 09:36 47.49220 8.52225 1716 ft 138 kts 137°
2026-05-06 09:36 47.48517 8.53188 1523 ft 137 kts 137°
2026-05-06 09:36 47.47824 8.54117 1409 ft 130 kts 139°
2026-05-06 09:37 47.47274 8.54879 1384 ft 78 kts 136°
2026-05-06 09:37 47.47069 8.55162 1385 ft 43 kts 137°
2026-05-06 09:37 47.46911 8.55380 1389 ft 30 kts 137°
2026-05-06 09:37 47.46755 8.55575 1401 ft 29 kts 148°
2026-05-06 09:38 47.46582 8.55678 1396 ft 24 kts 166°
2026-05-06 09:38 47.46433 8.55733 1396 ft 22 kts 167°
2026-05-06 09:38 47.46311 8.55854 1405 ft 21 kts 136°
2026-05-06 09:38 47.46203 8.55999 1408 ft 20 kts 141°
2026-05-06 09:39 47.46094 8.55990 1407 ft 16 kts 187°
2026-05-06 09:39 47.45972 8.55967 1406 ft 19 kts 191°
2026-05-06 09:39 47.45943 8.55824 1404 ft 17 kts 277°
2026-05-06 09:39 47.45955 8.55722 1409 ft 2 kts 331°
2026-05-06 09:40 47.45984 8.55727 1406 ft 7 kts
2026-05-06 09:40 47.46003 8.55731 1406 ft 2 kts
2026-05-06 09:40 47.46044 8.55737 1406 ft 2 kts
2026-05-06 09:41 47.46046 8.55738 1405 ft 0 kts